Regional Weather Roundup
Issued by NWS

Home | Current Version | Previous Version | Text Only | Print | Product List | Glossary On
Versions: 1 2 3 4 5 6 7 8 9 10 11 12 13 14 15 16 17 18 19 20 21 22 23 24 25 26 27 28 29 30 31 32 33 34 35 36 37 38 39 40 41 42 43 44 45 46 47 48 49 50
000
ASUS45 KSLC 232110
RWRUT

UTAH REGIONAL WEATHER ROUNDUP
NATIONAL WEATHER SERVICE SALT LAKE CITY UT
300 PM MDT SUN JUL 23 2017

UTZ001>011-023>025-232200-

NORTHERN UTAH

CITY           SKY/WX    TMP DP  RH WIND       PRES   REMARKS
BRIGHAM CITY     N/A     96  17   6 W7        30.02F
HILL AFB         N/A     93  38  14 W5        30.07F
LOGAN            N/A     95  41  15 N14G20    30.05F HX  91
OGDEN            N/A     95  42  16 VRB3      30.03F HX  91
SALT LAKE CITY PTSUNNY   96  44  16 N7        30.01F HX  92
TOOELE VALLEY    N/A     90  50  25 N9        30.05S
WENDOVER         N/A     93  37  14 E9        30.03F
HEBER CITY       N/A     91  41  17 N16       30.11S
WEST JORDAN      N/A     92  59  32 NW13      30.05F HX  91

$$

UTZ011>015-024>027-232200-

CENTRAL/NORTHEAST UTAH

CITY           SKY/WX    TMP DP  RH WIND       PRES   REMARKS
PROVO AIRPORT  PTSUNNY   86  57  37 VRB6      30.04F
MOAB/CANYONLAN   N/A     98  40  13 VRB7      30.01F HX  93
DELTA            N/A     97  36  11 NW6       30.03F HX  92
PRICE            N/A     91  35  13 VRB6      30.14F
ROOSEVELT      SUNNY     95  36  12 S8        30.11F HX  90
VERNAL         SUNNY     94  34  12 SW5       30.10F

$$

UTZ013>016-019>022-027-232200-

SOUTHERN UTAH

CITY           SKY/WX    TMP DP  RH WIND       PRES   REMARKS
BRYCE CANYON     N/A     81  46  29 N22G31    30.30F
CEDAR CITY       N/A     86  43  22 SE16G25   30.11F
MILFORD          N/A     98  44  15 E18G28    30.03F HX  94
ST GEORGE        N/A    104  51  17 VRB6      29.85F HX 101
HANKSVILLE       N/A     99  37  12 SE7       30.03F HX  93
BLANDING         N/A     87  47  24 S5        30.22F

$$

REGIONAL REPORTS     COLORADO/ARIZONA

CITY           SKY/WX    TMP DP  RH WIND       PRES   REMARKS
CRAIG, CO      SUNNY     91  23   8 VRB5      30.18F
GRAND JUNCTION SUNNY     95  30  10 SW3       30.05F
RIFLE, CO      SUNNY     93  35  13 NW9       30.10F
MONTROSE, CO   SUNNY     89  42  19 VRB3      30.13F
CORTEZ, CO     CLOUDY    90  47  22 VRB6      30.14F
COLORADO CITY    N/A     99  45  15 SE8       30.06F HX  94
PAGE, AZ         N/A     98  46  17 VRB3      29.99F HX  94
GRAND CANYON   CLOUDY    71  57  61 SW5       30.24F
KINGMAN, AZ      N/A     97  59  28 SW17G23   29.96F HX  96
FLAGSTAFF, AZ  TSTM      58  57  97 VRB3      30.28R VSB 1/2

$$

REGIONAL REPORTS    NEVADA/IDAHO/WYOMING

CITY           SKY/WX    TMP DP  RH WIND       PRES   REMARKS
LAS VEGAS, NV    N/A    107  55  18 VRB7      29.81F HX 106
ELY, NY          N/A    N/A N/A N/A NW7       30.18S
ELKO, NV         N/A     97  31   9 MISG      30.04F HX  91
POCATELLO, ID  SUNNY     92  42  17 NW7       30.06F
BURLEY, ID       N/A     91  39  16 VRB3      30.02F
FORT BRIDGER,    N/A     85  24  11 W7        30.29S
EVANSTON, WY   CLOUDY    84  28  13 N12G21    30.27F
ROCK SPRINGS,  SUNNY     89  18   7 W12       30.22F
KEMMERER, WY     N/A     82  28  14 NW16G25   30.30S

$$



USA.gov is the U.S. government's official web portal to all federal, state and local government web resources and services.